Flag for Taiwan Weather past 2 weeks in Kaohsiung, Taiwan

Now
93 °F

Broken clouds.


Feels Like: 110 °F
Forecast: 80 / 91 °F
Wind: 10 mph from West

Location: Kaohsiung International Airport

Current Time: Jul 29, 2014 at 1:46:47 PM

Latest Report: Jul 29, 2014 at 1:00 PM


Visibility: N/A

Pressure: 29.65 "Hg

Humidity: 63%

Dew point: 79 °F

Location of KaohsiungLocation

Historic Weather in Kaohsiung — Graph

°F

Kaohsiung temperature yesterday

Maximum temperature yesterday: 90 °F (at 10:00 AM)
Minimum temperature yesterday: 81 °F (at 2:00 AM)
Average temperature yesterday: 85 °F

Past Weeks' High & Low Weather Summary

 TemperatureHumidityPressure
High93 °F (Jul 16, 10:30 AM)100% (Jul 18, 4:30 PM)29.89 "Hg (Jul 18, 4:30 PM)
Low77 °F (Jul 19, 2:55 PM)52% (Jul 29, 11:30 AM)29.18 "Hg (Jul 22, 11:30 PM)
Average85 °F80%29.72 "Hg
* Reported Jul 14 12:00 Noon — Jul 29 12:30 PM, Kaohsiung, Weather by CustomWeather, © 2014

Note: Actual official high and low records may vary slightly from our data, if they occured in-between our weather recording intervals... More about our weather records

Advertising

Kaohsiung weather history for previous 24 hours

 ConditionsComfort  
Time TempWeatherWind HumidityBarometerVisibility
12:30 PM
Jul 29
93 °FBroken clouds.7 mph59%29.68 "HgN/A
12:00 PM91 °FBroken clouds.10 mph59%29.68 "HgN/A
11:30 AM91 °FBroken clouds.10 mph52%29.68 "HgN/A
11:00 AM91 °FBroken clouds.12 mph56%29.68 "HgN/A
10:30 AM91 °FScattered clouds.9 mph63%29.68 "HgN/A
10:00 AM91 °FScattered clouds.6 mph59%29.68 "HgN/A
9:30 AM90 °FScattered clouds.7 mph63%29.68 "HgN/A
9:00 AM91 °FScattered clouds.3 mph63%29.68 "HgN/A
8:30 AM86 °FScattered clouds.5 mph70%29.68 "HgN/A
8:00 AM86 °FPassing clouds.6 mph75%29.68 "HgN/A
7:30 AM84 °FPassing clouds.6 mph79%29.68 "HgN/A
7:00 AM82 °FPassing clouds.5 mph84%29.68 "HgN/A
6:30 AM81 °FScattered clouds.5 mph89%29.68 "HgN/A
6:00 AM79 °FScattered clouds.N/A89%29.68 "HgN/A
4:00 AM81 °FPartly cloudy.2 mph84%29.65 "Hg4 mi
3:00 AM79 °FPartly cloudy.3 mph94%29.65 "Hg4 mi
2:00 AM81 °FPartly cloudy.6 mph89%29.68 "Hg4 mi
1:00 AM81 °FPartly cloudy.6 mph89%29.71 "Hg4 mi
12:00 AM81 °FPassing clouds.6 mph94%29.71 "Hg4 mi
11:30 PM
Jul 28
81 °FPassing clouds.6 mph89%29.71 "Hg5 mi
11:00 PM82 °FPassing clouds.7 mph89%29.74 "HgN/A
10:30 PM84 °FPassing clouds.5 mph79%29.71 "HgN/A
10:00 PM84 °FPassing clouds.6 mph79%29.71 "HgN/A
9:30 PM84 °FPassing clouds.6 mph84%29.71 "HgN/A
9:00 PM84 °FPassing clouds.6 mph79%29.71 "HgN/A
8:30 PM84 °FPartly cloudy.7 mph84%29.71 "HgN/A
8:00 PM84 °FPartly cloudy.7 mph79%29.68 "HgN/A
7:30 PM84 °FPartly cloudy.8 mph84%29.68 "HgN/A
7:00 PM84 °FPartly cloudy.9 mph84%29.65 "HgN/A
6:30 PM86 °FBroken clouds.7 mph75%29.65 "HgN/A
6:00 PM86 °FBroken clouds.7 mph75%29.62 "HgN/A
5:30 PM86 °FBroken clouds.8 mph79%29.62 "HgN/A
5:00 PM86 °FBroken clouds.8 mph75%29.62 "HgN/A
4:30 PM86 °FBroken clouds.10 mph75%29.65 "HgN/A
4:00 PM86 °FBroken clouds.10 mph75%29.65 "HgN/A
3:45 PM86 °FBroken clouds.10 mph70%29.65 "HgN/A
3:30 PM88 °FThundershowers. Broken clouds.9 mph75%29.65 "HgN/A
3:00 PM90 °FThunderstorms. Broken clouds.13 mph67%29.65 "HgN/A
2:48 PM90 °FThunderstorms. Broken clouds.14 mph71%29.65 "HgN/A
2:30 PM90 °FThundershowers. Scattered clouds.15 mph71%29.68 "HgN/A
2:00 PM90 °FThundershowers. Scattered clouds.15 mph75%29.68 "HgN/A
1:56 PM90 °FThundershowers. Scattered clouds.15 mph75%29.68 "HgN/A
1:30 PM90 °FScattered clouds.14 mph75%29.68 "HgN/A
1:00 PM88 °FPartly sunny.13 mph79%29.68 "HgN/A
Weather by CustomWeather, © 2014

See weather overviewHow to use our weather pages